Regional Weather Roundup
Issued by NWS Little Rock, AR

Home | Current Version | Previous Version | Text Only | Print | Product List | Glossary On
Versions: 1 2 3 4 5 6 7 8 9 10 11 12 13 14 15 16 17 18 19 20 21 22 23 24 25 26 27 28 29 30 31 32 33 34 35 36 37 38 39 40 41 42 43 44 45 46 47 48 49 50
000
ASUS44 KLZK 230405
RWRLZK

WEATHER ROUNDUP FOR ARKANSAS
NATIONAL WEATHER SERVICE LITTLE ROCK AR
1100 PM CDT FRI AUG 22 2014

NOTE: "FAIR" INDICATES FEW OR NO CLOUDS BELOW 12,000 FEET WITH NO
SIGNIFICANT WEATHER AND/OR OBSTRUCTIONS TO VISIBILITY.

ARZ001-003-010-029-230500-
NORTHWEST ARKANSAS

CITY           SKY/WX    TMP DP  RH WIND       PRES   REMARKS
FAYETTEVILLE   CLEAR     79  74  84 S3        30.00S
FORT SMITH     CLEAR     84  75  74 S3        29.96S HX  92
HARRISON       CLEAR     80  73  79 S8        30.00F
BENTONVILLE    CLEAR     81  72  74 SW3       30.02R
ROGERS         CLEAR     82  71  69 S6        30.02R HX  86
SILOAM SPGS    CLEAR     81  70  69 S8        30.01R
HIGHFILL       CLEAR     79  71  76 SW5       30.00R
$$

ARZ004-005-016-230500-
NORTH CENTRAL ARKANSAS

CITY           SKY/WX    TMP DP  RH WIND       PRES   REMARKS
BATESVILLE     CLEAR     84  73  70 S6        29.98R HX  91
FLIPPIN        CLEAR     82  70  65 SW6       29.98S HX  86
MTN HOME       CLEAR     81  72  74 S3        29.98R HX  85
$$

ARZ040-041-230500-
WEST CENTRAL ARKANSAS

CITY           SKY/WX    TMP DP  RH WIND       PRES   REMARKS
MENA           CLEAR     77  73  88 CALM      30.03R
MOUNT IDA      CLEAR     76  74  93 CALM      29.99S FOG
$$

ARZ009-017-025-026-028-230500-
NORTHEAST ARKANSAS

CITY           SKY/WX    TMP DP  RH WIND       PRES   REMARKS
CORNING        FAIR      82  75  78 SW9       29.97S HX  89
JONESBORO      CLEAR     83  73  72 S9        29.98R HX  89
NEWPORT        CLEAR     80  76  87 S8        29.98S HX  85
WALNUT RIDGE   CLEAR     81  73  78 S8        29.96S HX  85
BLYTHEVILLE    CLEAR     80  77  90 S6        29.99S HX  87
$$

ARZ022-023-033-042-044-230500-
CENTRAL ARKANSAS

CITY           SKY/WX    TMP DP  RH WIND       PRES   REMARKS
LITTLE ROCK    CLEAR     83  74  74 CALM      29.99S HX  89
N LITTLE ROCK  CLEAR     83  77  82 SW6       29.99S HX  92
JACKSONVILLE   CLEAR     82  78  87 S5        29.99S HX  90
SEARCY           N/A     82  78  88 CALM        N/A  HX  91
HOT SPRINGS    CLEAR     81  75  82 CALM      30.01S HX  87
RUSSELLVILLE   CLEAR     80  76  87 CALM      29.98S HX  86
CLINTON        FAIR      79  75  89 CALM      29.99S
$$

ARZ036-230500-
EAST ARKANSAS

CITY           SKY/WX    TMP DP  RH WIND       PRES   REMARKS
WEST MEMPHIS   CLEAR     80  77  90 CALM      29.99R HX  87
$$

ARZ050-053-066-070-073-230500-
SOUTHWEST ARKANSAS

CITY           SKY/WX    TMP DP  RH WIND       PRES   REMARKS
ARKADELPHIA    FAIR      79  79 100 CALM      29.99F
CAMDEN         CLEAR     79  73  83 S3        29.99F
TEXARKANA      CLEAR     82  72  71 S5        30.00S HX  87
EL DORADO      CLEAR     79  73  82 S5        30.01F
DE QUEEN       PTCLDY    77  76  96 CALM      29.97S FOG
$$

ARZ056-057-069-230500-
SOUTHEAST ARKANSAS

CITY           SKY/WX    TMP DP  RH WIND       PRES   REMARKS
PINE BLUFF     CLEAR     77  74  90 CALM      30.00S
STUTTGART      CLEAR     81  75  83 S7        30.01R HX  86
MONTICELLO     CLEAR     83  71  67 SW6       30.00F HX  87

$$




USA.gov is the U.S. government's official web portal to all federal, state and local government web resources and services.